This is the latest recevied weather packets stored in our database for station/object KE5OYL. If no packets are shown the sender has not sent any weather packets the latest 10 day(s).
| Time | Temp. | Humidity | Pressure | Rain* | Wind** | Luminosity | Snow |
|---|---|---|---|---|---|---|---|
| 1777561620 | 16.67° C | 88% | 1015.9 hPa | 0 mm | - | 67 W/m² | - |
| 1777561316 | 16.67° C | 87% | 1015.5 hPa | 0 mm | - | 84 W/m² | - |
| 1777561016 | 16.67° C | 86% | 1015.6 hPa | 0 mm | - | 80 W/m² | - |
| 1777560711 | 16.67° C | 85% | 1015.6 hPa | 0 mm | - | 65 W/m² | - |
| 1777560409 | 16.67° C | 85% | 1015.6 hPa | 0 mm | - | 54 W/m² | - |
| 1777560107 | 16.67° C | 85% | 1015.6 hPa | 0 mm | - | 51 W/m² | - |
| 1777559803 | 16.67° C | 85% | 1015.4 hPa | 0 mm | - | 54 W/m² | - |
| 1777559500 | 16.67° C | 85% | 1015.4 hPa | 0 mm | - | 56 W/m² | - |
| 1777559197 | 16.67° C | 85% | 1015.2 hPa | 0 mm | - | 53 W/m² | - |
| 1777558891 | 16.67° C | 85% | 1015.2 hPa | 0 mm | - | 69 W/m² | - |
| 1777558588 | 16.67° C | 85% | 1014.8 hPa | 0 mm | - | 108 W/m² | - |
| 1777558283 | 16.67° C | 85% | 1014.8 hPa | 0 mm | - | 75 W/m² | - |
| 1777557980 | 16.67° C | 85% | 1014.6 hPa | 0 mm | - | 81 W/m² | - |
| 1777557677 | 16.67° C | 85% | 1014.5 hPa | 0 mm | - | 81 W/m² | - |
| 1777557373 | 16.67° C | 85% | 1014.5 hPa | 0 mm | - | 112 W/m² | - |
| 1777557069 | 16.67° C | 85% | 1014.4 hPa | 0 mm | - | 123 W/m² | - |
| 1777556764 | 16.67° C | 85% | 1014.4 hPa | 0 mm | - | 107 W/m² | - |
| 1777556462 | 16.67° C | 85% | 1014.4 hPa | 0 mm | - | 97 W/m² | - |
| 1777556161 | 16.67° C | 85% | 1014.4 hPa | 0 mm | - | 100 W/m² | - |
| 1777555857 | 16.67° C | 86% | 1014.6 hPa | 0 mm | - | 96 W/m² | - |
| 1777555553 | 16.11° C | 86% | 1014.7 hPa | 0 mm | - | 113 W/m² | - |
| 1777555250 | 16.11° C | 86% | 1014.7 hPa | 0 mm | - | 93 W/m² | - |
| 1777554946 | 16.11° C | 86% | 1014.6 hPa | 0 mm | - | 86 W/m² | - |
| 1777554643 | 16.11° C | 86% | 1014.6 hPa | 0 mm | - | 83 W/m² | - |
| 1777554340 | 16.11° C | 86% | 1014.4 hPa | 0 mm | - | 89 W/m² | - |
* Rain latest hour (hover to see other rain measurements)
** Current wind speed in m/s (hover to see current wind gust speed)